Weather in Tugtun

Russia / Republic of Kalmykia     47°24′17″N   45°03′02″E
temp.,
°C
wind,
m/s
gust,
m/s
humid.,
%
clouds,
%
prec.,
mm/h
press.,
hPa
HPBL,
m
11 may, tue
tue1100:00+8ssw71084100 0.6 10141061
03:00+8s81286100 3.1 10151202
06:00+7s91485100 1.5 10171093
09:00+10s91470100 2.3 10191298
12:00+16ssw81145100 0.0 10202118
15:00+16se4844100 0.0 10202099
18:00+16e5949100 0.0 1020294
21:00+13ne5954100 0.0 1020199
12 may, wed
wed1200:00+12ene51262100 0.0 1019348
03:00+10ene466881 0.0 101895
06:00+11e22665 0.0 101889
09:00+16e11493 0.0 1019632
12:00+19ese23385 0.0 10181407
15:00+21e23350 0.0 10181617
18:00+21ne22443 0.0 101791
21:00+17n445895 0.0 101658
13 may, thu
thu1300:00+17n4759100 0.0 1016163
03:00+15nne34760 0.0 101564
06:00+16ne237782 0.0 1016109
09:00+21ene22620 0.0 1016597
12:00+24se33470 0.0 10161370
15:00+26se34380 0.0 10151256
18:00+26ese22460 0.0 101546
21:00+22ene45530 0.0 101546
14 may, fri
fri1400:00+19se49692 0.0 1015179
03:00+17se46755 0.0 1016105
06:00+18se37725 0.0 1016210
09:00+25se684438 0.0 1016555
12:00+31se912260 0.0 10151477
15:00+32se1013250 0.0 10151960
18:00+28se814285 0.0 1015446
21:00+22se71629100 0.0 1016424
15 may, sat
sat1500:00+19ese51438100 0.0 1016265
03:00+18ese5124369 0.0 1015202
06:00+18ese411515 0.0 1015243
09:00+27se813290 0.0 1015740
12:00+31sse912180 0.0 10152130
15:00+32sse910170 0.0 10142663
18:00+28se712260 0.0 1014315
21:00+23se615370 0.0 1015269